This is the latest recevied weather packets stored in our database for station/object W2SRH. If no packets are shown the sender has not sent any weather packets the latest 10 day(s).
| Time | Temp. | Humidity | Pressure | Rain* | Wind** | Luminosity | Snow |
|---|---|---|---|---|---|---|---|
| 1777496343 | 16.11° C | 50% | 1001.8 hPa | 0 mm | 0.45 m/s, 181° | - | - |
| 1777495743 | 16.11° C | 50% | 1001.8 hPa | 0 mm | 0.45 m/s, 192° | - | - |
| 1777495144 | 16.11° C | 50% | 1001.9 hPa | 0 mm | 0.45 m/s, 166° | - | - |
| 1777494544 | 16.11° C | 50% | 1002.1 hPa | 0 mm | 1.34 m/s, 169° | - | - |
| 1777493943 | 16.67° C | 48% | 1002.2 hPa | 0 mm | 0.89 m/s, 184° | - | - |
| 1777493344 | 17.22° C | 47% | 1002.3 hPa | 0 mm | 0.89 m/s, 151° | - | - |
| 1777492745 | 17.22° C | 46% | 1002.5 hPa | 0 mm | 0.45 m/s, 167° | - | - |
| 1777492144 | 17.78° C | 46% | 1002.8 hPa | 0 mm | 0.45 m/s, 169° | - | - |
| 1777491545 | 17.78° C | 46% | 1002.7 hPa | 0 mm | 0.45 m/s, 169° | - | - |
| 1777490944 | 17.78° C | 45% | 1003 hPa | 0 mm | 0.45 m/s, 179° | - | - |
| 1777490344 | 17.78° C | 45% | 1003.3 hPa | 0 mm | 0.45 m/s, 154° | - | - |
| 1777489789 | 18.89° C | 44% | 1003.3 hPa | 0 mm | 0.89 m/s, 196° | - | - |
| 1777489744 | 18.89° C | 44% | 1003.3 hPa | 0 mm | 0.89 m/s, 196° | - | - |
| 1777489144 | 18.33° C | 44% | 1003.3 hPa | 0 mm | 0.89 m/s, 144° | - | - |
| 1777488544 | 18.33° C | 44% | 1003.7 hPa | 0 mm | 0.89 m/s, 160° | - | - |
| 1777487944 | 18.89° C | 43% | 1003.8 hPa | 0 mm | 1.79 m/s, 159° | - | - |
| 1777487344 | 18.89° C | 43% | 1004.1 hPa | 0 mm | 0.45 m/s, 184° | - | - |
| 1777486744 | 18.89° C | 43% | 1004.2 hPa | 0 mm | 0.89 m/s, 168° | - | - |
| 1777486144 | 18.33° C | 43% | 1004.3 hPa | 0 mm | 0.45 m/s, 174° | - | - |
| 1777485544 | 18.89° C | 43% | 1004.5 hPa | 0 mm | 0.45 m/s, 166° | - | - |
| 1777484943 | 18.89° C | 42% | 1004.6 hPa | 0 mm | 0.89 m/s, 214° | - | - |
| 1777484344 | 18.33° C | 42% | 1004.7 hPa | 0 mm | 0.45 m/s, 183° | - | - |
| 1777483743 | 18.33° C | 42% | 1004.9 hPa | 0 mm | 0.45 m/s, 167° | - | - |
| 1777483144 | 18.33° C | 41% | 1004.7 hPa | 0 mm | 0.45 m/s, 153° | - | - |
| 1777482544 | 18.89° C | 41% | 1004.8 hPa | 0 mm | 0.89 m/s, 184° | - | - |
* Rain latest hour (hover to see other rain measurements)
** Current wind speed in m/s (hover to see current wind gust speed)